| time (UTC) | temp F | wind direction | speed MPH | gust MPH | rain 1hr in | rain 24hr in | rain mn in | humidity % | barometer mb |
| 20260505234559 | 48 | 4 | 14.0 | 19.0 | 0.00 | 0.00 | 0.00 | 28 | 1017.7 |
| 20260505233106 | 47 | 28 | 11.0 | 20.0 | 0.00 | 0.00 | 0.00 | 25 | 1017.5 |
| 20260505231613 | 47 | 359 | 15.0 | 21.0 | 0.00 | 0.00 | 0.00 | 26 | 1017.6 |
| 20260505230100 | 48 | 354 | 12.0 | 21.0 | 0.00 | 0.00 | 0.00 | 24 | 1017.7 |
| 20260505224604 | 48 | 4 | 12.0 | 18.0 | 0.00 | 0.00 | 0.00 | 28 | 1017.6 |
| 20260505223058 | 47 | 42 | 12.0 | 19.0 | 0.00 | 0.00 | 0.00 | 27 | 1017.8 |
| 20260505221604 | 47 | 10 | 12.0 | 21.0 | 0.00 | 0.00 | 0.00 | 26 | 1017.8 |
| 20260505214600 | 48 | 19 | 15.0 | 23.0 | 0.00 | 0.00 | 0.00 | 25 | 1017.9 |
| 20260505213059 | 48 | 35 | 13.0 | 19.0 | 0.00 | 0.00 | 0.00 | 27 | 1018.0 |
| 20260505211558 | 48 | 359 | 14.0 | 24.0 | 0.00 | 0.00 | 0.00 | 26 | 1018.0 |
| 20260505210100 | 47 | 16 | 12.0 | 19.0 | 0.00 | 0.00 | 0.00 | 29 | 1018.1 |
| 20260505204600 | 47 | 16 | 14.0 | 21.0 | 0.00 | 0.00 | 0.00 | 29 | 1018.3 |
| 20260505203122 | 46 | 359 | 15.0 | 22.0 | 0.00 | 0.00 | 0.00 | 29 | 1018.3 |
| 20260505201604 | 47 | 16 | 13.0 | 22.0 | 0.00 | 0.00 | 0.00 | 30 | 1018.5 |
| 20260505200059 | 46 | 351 | 16.0 | 23.0 | 0.00 | 0.00 | 0.00 | 31 | 1018.4 |
| 20260505194559 | 45 | 4 | 15.0 | 24.0 | 0.00 | 0.00 | 0.00 | 29 | 1018.4 |
| 20260505193100 | 45 | 12 | 16.0 | 25.0 | 0.00 | 0.00 | 0.00 | 30 | 1018.5 |
| 20260505191612 | 45 | 17 | 14.0 | 21.0 | 0.00 | 0.00 | 0.00 | 30 | 1018.4 |
| 20260505190100 | 45 | 35 | 17.0 | 29.0 | 0.00 | 0.00 | 0.00 | 31 | 1018.5 |
| 20260505184559 | 44 | 36 | 15.0 | 26.0 | 0.00 | 0.00 | 0.00 | 33 | 1018.5 |
| 20260505183102 | 43 | 339 | 14.0 | 23.0 | 0.00 | 0.00 | 0.00 | 33 | 1018.6 |
| 20260505181602 | 42 | 32 | 16.0 | 25.0 | 0.00 | 0.00 | 0.00 | 35 | 1018.8 |
| 20260505180103 | 41 | 4 | 14.0 | 22.0 | 0.00 | 0.00 | 0.00 | 35 | 1018.8 |
| 20260505174605 | 40 | 354 | 16.0 | 25.0 | 0.00 | 0.00 | 0.00 | 37 | 1018.9 |
| 20260505173101 | 40 | 4 | 18.0 | 25.0 | 0.00 | 0.00 | 0.00 | 37 | 1018.8 |
| 20260505171601 | 39 | 13 | 16.0 | 23.0 | 0.00 | 0.00 | 0.00 | 38 | 1018.8 |
| 20260505170111 | 38 | 10 | 14.0 | 22.0 | 0.00 | 0.00 | 0.00 | 41 | 1018.9 |
| 20260505164558 | 38 | 12 | 15.0 | 23.0 | 0.00 | 0.00 | 0.00 | 41 | 1018.8 |
| 20260505163103 | 37 | 8 | 17.0 | 23.0 | 0.00 | 0.00 | 0.00 | 42 | 1018.8 |
| 20260505161616 | 37 | 19 | 14.0 | 22.0 | 0.00 | 0.00 | 0.00 | 41 | 1018.8 |
| 20260505153107 | 34 | 33 | 12.0 | 20.0 | 0.00 | 0.00 | 0.00 | 49 | 1018.8 |
| 20260505151606 | 33 | 4 | 13.0 | 22.0 | 0.00 | 0.00 | 0.00 | 56 | 1018.7 |
| 20260505140112 | 28 | 4 | 11.0 | 15.0 | 0.00 | 0.00 | 0.00 | 85 | 1018.9 |
| 20260505130107 | 22 | 348 | 7.0 | 10.0 | 0.00 | 0.00 | 0.00 | 89 | 1018.5 |
| 20260505124604 | 21 | 359 | 7.0 | 10.0 | 0.00 | 0.00 | 0.00 | 89 | 1018.5 |
| 20260505123105 | 20 | 4 | 6.0 | 9.0 | 0.00 | 0.00 | 0.00 | 88 | 1018.3 |
| 20260505121625 | 20 | 359 | 4.0 | 8.0 | 0.00 | 0.00 | 0.00 | 88 | 1018.4 |
| 20260505120100 | 20 | 354 | 4.0 | 6.0 | 0.00 | 0.00 | 0.00 | 87 | 1018.2 |
| 20260505114600 | 20 | 8 | 5.0 | 8.0 | 0.00 | 0.00 | 0.00 | 87 | 1018.1 |
| 20260505113104 | 20 | 350 | 5.0 | 8.0 | 0.00 | 0.00 | 0.00 | 87 | 1018.1 |
| 20260505111600 | 21 | 4 | 5.0 | 9.0 | 0.00 | 0.00 | 0.00 | 87 | 1018.0 |
| 20260505101559 | 20 | 354 | 5.0 | 8.0 | 0.00 | 0.00 | 0.00 | 85 | 1017.7 |
| 20260505094558 | 21 | 4 | 5.0 | 9.0 | 0.00 | 0.00 | 0.00 | 84 | 1017.4 |
| 20260505093101 | 21 | 4 | 5.0 | 8.0 | 0.00 | 0.00 | 0.00 | 83 | 1017.2 |
| 20260505091604 | 21 | 4 | 6.0 | 8.0 | 0.00 | 0.00 | 0.00 | 83 | 1017.2 |
| 20260505090109 | 21 | 359 | 4.0 | 7.0 | 0.00 | 0.00 | 0.00 | 82 | 1017.0 |
| 20260505084637 | 22 | 4 | 5.0 | 8.0 | 0.00 | 0.00 | 0.00 | 81 | 1017.0 |
| 20260505083104 | 22 | 359 | 4.0 | 6.0 | 0.00 | 0.00 | 0.00 | 80 | 1017.0 |
| 20260505081604 | 22 | 354 | 4.0 | 6.0 | 0.00 | 0.00 | 0.00 | 80 | 1016.9 |
| 20260505074559 | 24 | 8 | 4.0 | 7.0 | 0.00 | 0.00 | 0.00 | 77 | 1016.8 |
| 20260505073101 | 25 | 4 | 5.0 | 8.0 | 0.00 | 0.00 | 0.00 | 77 | 1016.7 |
| 20260505071558 | 25 | 4 | 5.0 | 9.0 | 0.00 | 0.00 | 0.00 | 77 | 1016.6 |
| 20260505070059 | 26 | 10 | 7.0 | 10.0 | 0.00 | 0.00 | 0.00 | 76 | 1016.6 |
| 20260505064600 | 27 | 10 | 6.0 | 10.0 | 0.00 | 0.00 | 0.00 | 75 | 1016.5 |
| 20260505063059 | 27 | 8 | 5.0 | 9.0 | 0.00 | 0.00 | 0.00 | 74 | 1016.4 |
| 20260505061607 | 28 | 14 | 7.0 | 11.0 | 0.00 | 0.00 | 0.00 | 71 | 1016.4 |
| 20260505060103 | 30 | 4 | 6.0 | 9.0 | 0.00 | 0.00 | 0.00 | 69 | 1016.4 |
| 20260505054602 | 31 | 23 | 7.0 | 16.0 | 0.00 | 0.00 | 0.00 | 68 | 1016.3 |
| 20260505053108 | 32 | 10 | 10.0 | 14.0 | 0.00 | 0.00 | 0.00 | 67 | 1016.0 |
| 20260505051606 | 33 | 19 | 8.0 | 15.0 | 0.00 | 0.00 | 0.00 | 66 | 1015.9 |
| 20260505050117 | 33 | 4 | 12.0 | 17.0 | 0.00 | 0.00 | 0.00 | 65 | 1015.9 |
| 20260505041610 | 33 | 4 | 11.0 | 18.0 | 0.00 | 0.00 | 0.00 | 64 | 1015.9 |
| 20260505040109 | 34 | 24 | 12.0 | 19.0 | 0.00 | 0.00 | 0.00 | 64 | 1015.9 |
| 20260505034610 | 34 | 20 | 12.0 | 23.0 | 0.00 | 0.00 | 0.00 | 63 | 1015.9 |
| 20260505033117 | 34 | 27 | 14.0 | 21.0 | 0.00 | 0.00 | 0.00 | 64 | 1015.8 |
| 20260505031602 | 34 | 12 | 12.0 | 16.0 | 0.00 | 0.00 | 0.00 | 64 | 1015.8 |
| 20260505030105 | 34 | 28 | 12.0 | 21.0 | 0.00 | 0.00 | 0.00 | 63 | 1015.9 |
| 20260505024604 | 34 | 351 | 13.0 | 20.0 | 0.00 | 0.00 | 0.00 | 63 | 1015.5 |
| 20260505023108 | 35 | 25 | 15.0 | 22.0 | 0.00 | 0.00 | 0.00 | 62 | 1015.4 |
| 20260505021600 | 35 | 39 | 14.0 | 26.0 | 0.00 | 0.00 | 0.00 | 61 | 1015.3 |
| 20260505014601 | 36 | 25 | 10.0 | 20.0 | 0.00 | 0.00 | 0.00 | 61 | 1015.1 |
| 20260505013058 | 36 | 29 | 15.0 | 24.0 | 0.00 | 0.00 | 0.00 | 61 | 1014.8 |
| 20260505011603 | 36 | 25 | 16.0 | 20.0 | 0.00 | 0.00 | 0.00 | 62 | 1014.7 |
| 20260505004602 | 37 | 359 | 14.0 | 23.0 | 0.00 | 0.00 | 0.00 | 62 | 1014.6 |
| 20260505003102 | 37 | 12 | 14.0 | 24.0 | 0.00 | 0.00 | 0.00 | 61 | 1014.5 |
| 20260505001601 | 38 | 4 | 18.0 | 24.0 | 0.00 | 0.00 | 0.00 | 60 | 1014.5 |
| 20260505000104 | 38 | 351 | 17.0 | 25.0 | 0.00 | 0.00 | 0.00 | 60 | 1014.5 |
| 20260504234629 | 38 | 4 | 18.0 | 26.0 | 0.00 | 0.00 | 0.00 | 59 | 1014.3 |